Regional Weather Roundup
Issued by NWS

Home | Current Version | Previous Version | Text Only | Print | Product List | Glossary Off
Versions: 1 2 3 4 5 6 7 8 9 10 11 12 13 14 15 16 17 18 19 20 21 22 23 24 25 26 27 28 29 30 31 32 33 34 35 36 37 38 39 40 41 42 43 44 45 46 47 48 49 50

000
ASUS44 KMEG 210310
RWRTN
TENNESSEE HOURLY STATE WEATHER ROUNDUP
NATIONAL WEATHER SERVICE MEMPHIS TN
1000 PM CDT SUN AUG 20 2017

TNZ002-004-019-021-049-052-054-088>092-210400-
WEST TENNESSEE

CITY           SKY/WX    TMP DP  RH WIND       PRES   REMARKS
MEMPHIS INTL   PTCLDY    80  73  79 CALM      30.08R
NWS MEMPHIS      N/A     77 N/A N/A MISG        N/A
JACKSON        PTCLDY    75  75 100 CALM      30.10R
DYERSBURG      CLEAR     78  74  87 CALM      30.10R
SOMERVILLE     CLEAR     77  75  94 CALM      30.09R
COVINGTON      CLEAR     75  75 100 CALM      30.09R
UNION CITY     CLEAR     72  70  94 S5        30.08R
BOLIVAR        CLEAR     75  75 100 CALM      30.09R FOG
PARIS          CLEAR     70  68  94 CALM      30.10R
HUNTINGDON     CLEAR     73  72  94 CALM      30.10R
LEXINGTON      CLEAR     72  72 100 CALM      30.10R
SELMER         CLEAR     75  73  94 CALM      30.10R
SAVANNAH       MOCLDY    73  72  94 CALM      30.10R
$$

TNZ008-025-027-028-033-062-065-066-210400-
NORTH MIDDLE TENNESSEE

CITY           SKY/WX    TMP DP  RH WIND       PRES   REMARKS
NASHVILLE      CLOUDY    79  69  71 S6        30.12R
PORTLAND       CLEAR     77  70  78 CALM      30.12R
CLARKSVILLE    CLEAR     74  70  87 CALM      30.11R
SMYRNA         CLOUDY    75  69  81 SE5       30.12R
COOKEVILLE       N/A     72  70  94 CALM      30.14R
GALLATIN       CLEAR     75  72  88 CALM      30.14R
CROSSVILLE     CLEAR     72  68  87 CALM      30.21R
$$

TNZ061-075-076-078-094-096-097-210400-
SOUTH MIDDLE TENNESSEE

CITY           SKY/WX    TMP DP  RH WIND       PRES   REMARKS
FAYETTEVILLE   CLEAR     77  70  78 CALM      30.13R
TULLAHOMA        N/A     75  68  78 CALM      30.16R
WINCHESTER     CLEAR     73  70  88 S3        30.14S
MCMINNVILLE    CLEAR     73  73 100 CALM      30.15R
COLUMBIA       CLEAR     75  73  94 CALM      30.11R
SHELBYVILLE    CLEAR     75  73  94 E3        30.13R
$$

TNZ017-018-042-046-047-210400-
NORTHEAST TENNESSEE

CITY           SKY/WX    TMP DP  RH WIND       PRES   REMARKS
TRI CITIES     PTCLDY    72  68  87 CALM      30.20R
ELIZABETHTON   CLEAR     73  68  83 CALM      30.21S
$$

TNZ012-013-036-069-073-074-210400-
CENTRAL EAST TENNESSEE

CITY           SKY/WX    TMP DP  RH WIND       PRES   REMARKS
KNOXVILLE      CLEAR     75  66  73 NE5       30.14R
DOWNTOWN KNOXV   N/A     72  72 100 CALM      30.14S
GATLINBURG     CLEAR     75  66  73 CALM      30.15S
MORRISTOWN     PTCLDY    75  66  73 CALM      30.16S
JACKSBORO      CLEAR     72  70  94 CALM      30.20S
$$

TNZ083-085-099-210400-
SOUTHEAST TENNESSEE

CITY           SKY/WX    TMP DP  RH WIND       PRES   REMARKS
CHATTANOOGA    CLEAR     78  70  76 CALM      30.13R
DAYTON         CLOUDY    75  73  94 CALM      30.12S FOG
$$

SKY/WX REPORTED AS FAIR MEANS FEW OR NO CLOUDS BELOW
12 THOUSAND FEET.




USA.gov is the U.S. government's official web portal to all federal, state and local government web resources and services.